Regional Weather Roundup
Issued by NWS

Home | Current Version | Previous Version | Graphics & Text | Print | Product List | Glossary On
Versions: 1 2 3 4 5 6 7 8 9 10 11 12 13 14 15 16 17 18 19 20 21 22 23 24 25 26 27 28 29 30 31 32 33 34 35 36 37 38 39 40 41 42 43 44 45 46 47 48 49 50
000
ASUS43 KDMX 200607
RWRIA

WEATHER ROUNDUP FOR IOWA
NATIONAL WEATHER SERVICE DES MOINES IA
1200 AM CST SAT DEC 20 2014

NOTE: "FAIR" INDICATES FEW OR NO CLOUDS BELOW 12,000 FEET WITH NO
SIGNIFICANT WEATHER AND/OR OBSTRUCTIONS TO VISIBILITY.

* - THESE STATIONS ARE NOT NWS STATIONS...THUS NOT UNDER NWS
QUALITY CONTROL.  THEY ALSO DO NOT REPORT WEATHER SUCH
AS PRECIPITATION OR FOG.

IAZ001>003-012>014-020>022-031>034-043>046-200700-
   NORTHWEST IOWA

CITY           SKY/WX    TMP DP  RH WIND       PRES   REMARKS
CARROLL *      CLOUDY    28  28 100 S9        30.16S WCI  20
CHEROKEE *     CLOUDY    30  30 100 S9        30.12F FOG     WCI  22
DENISON *      CLOUDY    30  30 100 S9        30.12F FOG     WCI  22
LE MARS *      CLOUDY    32  30  93 SE9       30.10S WCI  24
ORANGE CITY *  CLOUDY    32  28  86 S7        30.09S FOG     WCI  26
SHELDON *      CLOUDY    30  30 100 S10       30.09S FOG     WCI  21
SIOUX CITY     CLOUDY    33  29  85 SE10      30.11S WCI  25
6HR MIN TEMP:  33; 6HR MAX TEMP:  34;

SPENCER        CLOUDY    31  28  89 S12       30.12F FOG     WCI  22
6HR MIN TEMP:  31; 6HR MAX TEMP:  33;

STORM LAKE *   CLOUDY    28  28 100 S12       30.13F FOG     WCI  18
$$

IAZ055>058-069>071-079>083-090>094-200700-
   SOUTHWEST IOWA

CITY           SKY/WX    TMP DP  RH WIND       PRES   REMARKS
ATLANTIC *     CLOUDY    30  28  93 S12       30.16S WCI  21
AUDUBON *      CLOUDY    28  23  80 S7        30.17S HAZE    WCI  21
CLARINDA *     CLOUDY    30  28  93 S8        30.21R WCI  23
COUNCIL BLFS * CLOUDY    30  30 100 SE13      30.12F FOG     WCI  20
CRESTON *      CLOUDY    28  28 100 SW10      30.17F WCI  19
HARLAN  *      CLOUDY    30  30 100 S9        30.18S FOG     WCI  22
LAMONI         CLOUDY    31  29  92 S10       30.18F FOG     WCI  22
6HR MIN TEMP:  31; 6HR MAX TEMP:  31; 6HR PCP: TRACE;

RED OAK *      CLOUDY    30  30 100 S8        30.18S FOG     WCI  23
SHENANDOAH *   CLOUDY    30  30 100 SE12      30.18F WCI  21
$$

IAZ047>049-059>061-072>074-084-200700-
   CENTRAL IOWA

CITY           SKY/WX    TMP DP  RH WIND       PRES   REMARKS
AMES           CLOUDY    30  28  92 SE8       30.19S FOG     WCI  22
6HR MIN TEMP:  29; 6HR MAX TEMP:  30;

ANKENY *       MIX PCPN  30  30 100 S5        30.20S WCI  25
CHARITON *     CLOUDY    32  32 100 S9        30.19S FOG     WCI  24
DES MOINES     FLURRIES  32  30  92 S5        30.20S WCI  27
6HR MIN TEMP:  32; 6HR MAX TEMP:  33; 6HR PCP: TRACE;

GRINNELL*      LGT SNOW  30  27  86 S8        30.21S WCI  23
KNOXVILLE *    CLOUDY    30  28  93 SE7       30.19S FOG     WCI  23
MARSHALLTOWN   CLOUDY    29  26  89 SE7       30.20R WCI  22
6HR MIN TEMP:  29; 6HR MAX TEMP:  30;

PELLA *        CLOUDY    31  28  87 SE6       30.23R FOG     WCI  25
PERRY *        CLOUDY    32  30  93 S9        30.18S FOG     WCI  24
$$

IAZ004>006-015-016-023>025-035-036-200700-
   NORTH CENTRAL IOWA

CITY           SKY/WX    TMP DP  RH WIND       PRES   REMARKS
ALGONA *       FOG       30  30 100 S12       30.15F VSB 1/4 WCI  21
CLARION *      FOG       28  30 100 S12       30.17S VSB 3/4 WCI  18
ESTHERVILLE    CLOUDY    30  29  96 S10       30.12S FOG     WCI  21
6HR MIN TEMP:  30; 6HR MAX TEMP:  31;

FORT DODGE *   CLOUDY    30  28  93 S8        30.17S WCI  23
MASON CITY     CLOUDY    29  26  89 S9        30.18S WCI  20
6HR MIN TEMP:  28; 6HR MAX TEMP:  29;

FOREST CITY *  CLOUDY    30  28  93 S9        30.16S FOG     WCI  22
IOWA FALLS *   CLOUDY    29  28  93 S10       30.19S FOG     WCI  20
$$

IAZ007>011-017>019-026>030-037>042-050>054-066-200700-
   NORTHEAST IOWA

CITY           SKY/WX    TMP DP  RH WIND       PRES   REMARKS
CEDAR RAPIDS   CLOUDY    30  23  75 S7        30.23S WCI  23
6HR MIN TEMP:  29; 6HR MAX TEMP:  30;

CHARLES CITY * CLOUDY    28  25  86 S9        30.20S WCI  20
CLINTON *      CLOUDY    27  21  80 S6        30.28F WCI  20
DECORAH *      CLOUDY    27  23  86 SE6       30.20S WCI  20
DUBUQUE        CLOUDY    26  22  84 S9        30.24R WCI  17
6HR MIN TEMP:  22; 6HR MAX TEMP:  27;

MONTICELLO *   CLOUDY    28  27  93 SE6       30.24S WCI  22
OELWEIN *      CLOUDY    28  25  86 S8        30.22S WCI  20
WATERLOO       CLOUDY    29  23  78 S9        30.22R WCI  20
6HR MIN TEMP:  29; 6HR MAX TEMP:  30; 6HR PCP: TRACE;

$$

IAZ064-065-067-068-078-200700-
   EAST CENTRAL IOWA

CITY           SKY/WX    TMP DP  RH WIND       PRES   REMARKS
DAVENPORT      CLOUDY    28  22  78 SE6       30.26S WCI  22
6HR MIN TEMP:  25; 6HR MAX TEMP:  28;

IOWA CITY      CLOUDY    30  23  75 SE6       30.26S WCI  24
6HR MIN TEMP:  30; 6HR MAX TEMP:  30;

MT. PLEASANT * CLOUDY    30  26  85 SE6       30.24F WCI  24
MUSCATINE *    CLOUDY    32  25  74 SE3       30.27S
QUAD CITIES    CLOUDY    29  24  82 CALM      30.27S
6HR MIN TEMP:  23; 6HR MAX TEMP:  29;

$$

IAZ062-063-075>077-085>089-095>099-200700-
   SOUTHEAST IOWA

CITY           SKY/WX    TMP DP  RH WIND       PRES   REMARKS
BURLINGTON     CLOUDY    31  24  75 SE6       30.24F WCI  25
6HR MIN TEMP:  31; 6HR MAX TEMP:  32; 6HR PCP: TRACE;

FAIRFIELD *    CLOUDY    30  27  86 S6        30.24R WCI  24
FORT MADISON * CLOUDY    34  28  80 SE3       30.25F
KEOKUK *       CLOUDY    32  28  86 SE3       30.24S
OSKALOOSA *    CLOUDY    29  27  92 SE6       30.23S FOG     WCI  23
CENTERVILLE *  CLOUDY    30  30 100 SE7       30.22R FOG     WCI  23
OTTUMWA        CLOUDY    30  26  85 S7        30.22S WCI  23
6HR MIN TEMP:  30; 6HR MAX TEMP:  30;

WASHINGTON *   CLOUDY    30  30 100 S7        30.24S WCI  23
$$

ABBREVIATIONS USED IN REMARKS
   TC - TEMPERATURES IN CELSIUS
  WCI - WIND CHILL INDEX
   HX - HEAT INDEX
  VSB - VISIBILITY
$$




USA.gov is the U.S. government's official web portal to all federal, state and local government web resources and services.